When you browse on this site, cookies collect data to enhance your experience and personalize the content and advertising you see.
Visit our Privacy Policy to learn more. By continuing to use the site, you agree to this use of cookies and data.
  • In Portugal
  • List of Countries
  • For 7 days
  • Water Temperature
  • Satellite Maps
  • Weather Map
  • Weather Widgets
  • user-avatar
    Login

    Hourly Weather Nieszki

    Today, 26 June, Wednesday

    Time Temperature Precipitation Wind Pressure Humidity
    00:00 +20°C° 0 mm 2 mps 754 mmHg 87%
    01:00 +20°C° 0 mm 2 mps 754 mmHg 88%
    02:00 +19°C° 0 mm 3 mps 753 mmHg 85%
    03:00 +19°C° 0 mm 3 mps 753 mmHg 85%
    04:00 +19°C° 0 mm 3 mps 753 mmHg 84%
    05:00 +19°C° 0 mm 3 mps 752 mmHg 84%
    06:00 +21°C° 0 mm 3 mps 752 mmHg 84%
    07:00 +22°C° 0 mm 3 mps 752 mmHg 83%
    08:00 +23°C° 0 mm 4 mps 752 mmHg 83%
    09:00 +25°C° 0.2 mm 4 mps 751 mmHg 80%
    10:00 +27°C° 0.2 mm 4 mps 751 mmHg 77%
    11:00 +29°C° 0.2 mm 4 mps 750 mmHg 74%
    12:00 +30°C° 0.2 mm 4 mps 750 mmHg 69%
    13:00 +32°C° 0.2 mm 5 mps 750 mmHg 65%
    14:00 +33°C° 0.2 mm 5 mps 749 mmHg 61%
    15:00 +32°C° 0.3 mm 4 mps 749 mmHg 65%
    16:00 +32°C° 0.3 mm 4 mps 748 mmHg 69%
    17:00 +30°C° 0.3 mm 3 mps 747 mmHg 72%
    18:00 +29°C° 1 mm 3 mps 747 mmHg 76%
    19:00 +27°C° 1 mm 3 mps 746 mmHg 80%
    20:00 +26°C° 1 mm 2 mps 746 mmHg 84%
    21:00 +25°C° 0.8 mm 3 mps 745 mmHg 87%
    22:00 +24°C° 0.8 mm 3 mps 745 mmHg 89%
    23:00 +22°C° 0.8 mm 3 mps 744 mmHg 92%

    Tomorrow, 27 June, Thursday

    Time Temperature Precipitation Wind Pressure Humidity
    00:00 +22°C° 0 mm 4 mps 744 mmHg 93%
    01:00 +21°C° 0 mm 4 mps 744 mmHg 94%
    02:00 +21°C° 0 mm 4 mps 743 mmHg 95%
    03:00 +20°C° 0 mm 5 mps 743 mmHg 95%
    04:00 +19°C° 0 mm 6 mps 743 mmHg 95%
    05:00 +17°C° 0 mm 7 mps 743 mmHg 95%
    06:00 +17°C° 0.1 mm 7 mps 743 mmHg 94%
    07:00 +17°C° 0.1 mm 7 mps 743 mmHg 93%
    08:00 +17°C° 0.1 mm 7 mps 743 mmHg 92%
    09:00 +18°C° 0.1 mm 7 mps 743 mmHg 85%
    10:00 +20°C° 0.1 mm 8 mps 743 mmHg 79%
    11:00 +21°C° 0.1 mm 8 mps 743 mmHg 73%
    12:00 +21°C° 0.3 mm 8 mps 744 mmHg 73%
    13:00 +21°C° 0.3 mm 8 mps 744 mmHg 74%
    14:00 +21°C° 0.3 mm 8 mps 744 mmHg 74%
    15:00 +20°C° 0.1 mm 8 mps 744 mmHg 73%
    16:00 +20°C° 0.1 mm 8 mps 744 mmHg 72%
    17:00 +18°C° 0.1 mm 7 mps 744 mmHg 70%
    18:00 +17°C° 0 mm 7 mps 744 mmHg 71%
    19:00 +16°C° 0 mm 7 mps 744 mmHg 72%
    20:00 +15°C° 0 mm 6 mps 745 mmHg 72%
    21:00 +14°C° 0 mm 6 mps 745 mmHg 72%
    22:00 +13°C° 0 mm 6 mps 746 mmHg 72%
    23:00 +11°C° 0 mm 6 mps 746 mmHg 72%

    Day after tomorrow, 28 June, Friday

    Time Temperature Precipitation Wind Pressure Humidity
    00:00 +11°C° 0 mm 6 mps 746 mmHg 72%
    01:00 +11°C° 0 mm 6 mps 746 mmHg 71%
    02:00 +10°C° 0 mm 6 mps 746 mmHg 71%
    03:00 +10°C° 0 mm 5 mps 746 mmHg 75%
    04:00 +10°C° 0 mm 5 mps 746 mmHg 79%
    05:00 +10°C° 0 mm 5 mps 746 mmHg 83%
    06:00 +11°C° 0 mm 6 mps 746 mmHg 76%
    07:00 +14°C° 0 mm 7 mps 747 mmHg 70%
    08:00 +15°C° 0 mm 8 mps 747 mmHg 63%
    09:00 +16°C° 0 mm 8 mps 747 mmHg 61%
    10:00 +16°C° 0 mm 8 mps 747 mmHg 59%
    11:00 +17°C° 0 mm 8 mps 747 mmHg 57%
    12:00 +18°C° 0 mm 8 mps 747 mmHg 57%
    13:00 +18°C° 0 mm 8 mps 747 mmHg 57%
    14:00 +18°C° 0 mm 8 mps 747 mmHg 57%
    15:00 +18°C° 0 mm 8 mps 747 mmHg 59%
    16:00 +18°C° 0 mm 7 mps 747 mmHg 61%
    17:00 +17°C° 0 mm 7 mps 747 mmHg 62%
    18:00 +16°C° 0 mm 7 mps 747 mmHg 66%
    19:00 +15°C° 0 mm 6 mps 747 mmHg 71%
    20:00 +14°C° 0 mm 6 mps 748 mmHg 75%
    21:00 +13°C° 0 mm 5 mps 748 mmHg 76%
    22:00 +12°C° 0 mm 5 mps 748 mmHg 78%
    23:00 +11°C° 0 mm 4 mps 748 mmHg 80%

    29 June, Saturday

    Time Temperature Precipitation Wind Pressure Humidity
    00:00 +10°C° 0 mm 4 mps 748 mmHg 81%
    01:00 +8°C° 0 mm 4 mps 748 mmHg 82%
    02:00 +8°C° 0 mm 4 mps 748 mmHg 83%
    03:00 +8°C° 0 mm 4 mps 748 mmHg 83%
    04:00 +8°C° 0 mm 4 mps 748 mmHg 82%
    05:00 +8°C° 0 mm 4 mps 748 mmHg 82%
    06:00 +10°C° 0 mm 5 mps 749 mmHg 78%
    07:00 +13°C° 0 mm 5 mps 749 mmHg 74%
    08:00 +15°C° 0 mm 6 mps 749 mmHg 70%
    09:00 +16°C° 0.1 mm 6 mps 749 mmHg 68%
    10:00 +17°C° 0.1 mm 6 mps 749 mmHg 67%
    11:00 +18°C° 0.1 mm 7 mps 749 mmHg 65%
    12:00 +18°C° 0.1 mm 7 mps 748 mmHg 64%
    13:00 +18°C° 0.1 mm 7 mps 748 mmHg 64%
    14:00 +20°C° 0.1 mm 6 mps 748 mmHg 63%
    15:00 +20°C° 0 mm 6 mps 748 mmHg 63%
    16:00 +21°C° 0 mm 6 mps 748 mmHg 63%
    17:00 +22°C° 0 mm 6 mps 747 mmHg 63%
    18:00 +20°C° 0 mm 5 mps 747 mmHg 68%
    19:00 +19°C° 0 mm 5 mps 747 mmHg 73%
    20:00 +18°C° 0 mm 4 mps 747 mmHg 78%
    21:00 +15°C° 0 mm 4 mps 747 mmHg 83%
    22:00 +14°C° 0 mm 3 mps 748 mmHg 88%
    23:00 +14°C° 0 mm 2 mps 748 mmHg 94%

    30 June, Sunday

    Time Temperature Precipitation Wind Pressure Humidity
    00:00 +13°C° 0 mm 2 mps 748 mmHg 94%
    01:00 +13°C° 0 mm 2 mps 748 mmHg 95%
    02:00 +13°C° 0 mm 2 mps 748 mmHg 95%
    03:00 +13°C° 0 mm 2 mps 748 mmHg 95%
    04:00 +13°C° 0 mm 2 mps 748 mmHg 94%
    05:00 +13°C° 0 mm 2 mps 748 mmHg 94%
    06:00 +15°C° 0 mm 2 mps 748 mmHg 88%
    07:00 +17°C° 0 mm 2 mps 748 mmHg 83%
    08:00 +19°C° 0 mm 3 mps 748 mmHg 78%
    09:00 +20°C° 0 mm 3 mps 748 mmHg 73%
    10:00 +22°C° 0 mm 3 mps 748 mmHg 68%
    11:00 +25°C° 0 mm 3 mps 748 mmHg 64%
    12:00 +26°C° 0 mm 3 mps 748 mmHg 61%
    13:00 +27°C° 0 mm 4 mps 747 mmHg 59%
    14:00 +28°C° 0 mm 4 mps 747 mmHg 56%
    15:00 +28°C° 0 mm 4 mps 747 mmHg 59%
    16:00 +28°C° 0 mm 4 mps 746 mmHg 61%
    17:00 +28°C° 0 mm 4 mps 746 mmHg 63%
    18:00 +27°C° 0 mm 4 mps 745 mmHg 68%
    19:00 +25°C° 0 mm 4 mps 745 mmHg 73%
    20:00 +23°C° 0 mm 4 mps 745 mmHg 78%
    21:00 +22°C° 0 mm 4 mps 744 mmHg 78%
    22:00 +21°C° 0 mm 4 mps 744 mmHg 78%
    23:00 +20°C° 0 mm 4 mps 744 mmHg 78%

    1 July, Monday

    Time Temperature Precipitation Wind Pressure Humidity
    00:00 +20°C° 0 mm 4 mps 744 mmHg 77%
    01:00 +19°C° 0 mm 4 mps 743 mmHg 76%
    02:00 +19°C° 0 mm 4 mps 743 mmHg 76%
    03:00 +19°C° 0 mm 4 mps 743 mmHg 80%
    04:00 +18°C° 0 mm 4 mps 743 mmHg 84%
    05:00 +18°C° 0 mm 4 mps 743 mmHg 89%
    06:00 +19°C° 0 mm 4 mps 743 mmHg 85%
    07:00 +20°C° 0 mm 4 mps 743 mmHg 81%
    08:00 +21°C° 0 mm 5 mps 743 mmHg 77%
    09:00 +21°C° 0 mm 5 mps 743 mmHg 73%
    10:00 +22°C° 0 mm 5 mps 743 mmHg 68%
    11:00 +22°C° 0 mm 5 mps 744 mmHg 64%
    12:00 +23°C° 0 mm 5 mps 744 mmHg 63%
    13:00 +23°C° 0 mm 5 mps 744 mmHg 63%
    14:00 +23°C° 0 mm 5 mps 744 mmHg 63%
    15:00 +23°C° 0 mm 5 mps 744 mmHg 64%
    16:00 +23°C° 0 mm 5 mps 743 mmHg 65%
    17:00 +22°C° 0 mm 4 mps 743 mmHg 67%
    18:00 +21°C° 0 mm 3 mps 743 mmHg 72%
    19:00 +20°C° 0 mm 2 mps 743 mmHg 78%
    20:00 +20°C° 0 mm 1 mps 743 mmHg 83%
    21:00 +19°C° 0 mm 1 mps 742 mmHg 84%
    22:00 +18°C° 0 mm 1 mps 742 mmHg 85%
    23:00 +15°C° 0 mm 0 mps 742 mmHg 86%
    Show more